Luqa, Malta

2:53 PM CEST on September 20, 2019 (GMT +0200)
Luqa

Weather History for LMML - August, 2019

Change the Weather History Date:

Sunday, August 25, 2019

  Actual Average Record
Temperature  
Mean Temperature 82 °F -  
Max Temperature 89 °F 83 °F 93 °F (2003)
Min Temperature 75 °F 68 °F 69 °F (2001)
Cooling Degree Days 17    
Growing Degree Days 32 (Base 50)    
Moisture  
Dew Point 70 °F    
Average Humidity 68    
Maximum Humidity 94    
Minimum Humidity 29    
Precipitation  
Precipitation 0.00 in 0.05 in - ()
Sea Level Pressure  
Sea Level Pressure 30.00 in    
Wind  
Wind Speed 5 mph ()    
Max Wind Speed 12 mph    
Max Gust Speed -    
Visibility 7.2 miles    
Events      
Averages and records for this station are not official NWS values.
T = Trace of Precipitation, MM = Missing Value Source: Averaged Metar Reports

Daily Weather History Graph

Daily Weather History Graph

Search for Another Location

Airport or City:

Astronomy

Aug. 25, 2019 Rise Set
Actual Time 6:28 AM CEST 7:39 PM CEST
Civil Twilight 6:01 AM CEST 8:06 PM CEST
Nautical Twilight 5:30 AM CEST 8:37 PM CEST
Astronomical Twilight 4:57 AM CEST 9:10 PM CEST
Moon 12:55 AM CEST (8/25) 3:35 PM CEST (8/25)
Length of Visible Light 14h 04m
Length of Day
13h 11m
Waning Crescent, 32% of the Moon is Illuminated
Aug 25
Waning Crescent
Aug 30
New
Sep 6
First Quarter
Sep 14
Full
Sep 22
Last Quarter

Hourly Weather History & Observations

Time (CEST) Temp. Heat Index Dew Point Humidity Pressure Visibility Wind Dir Wind Speed Gust Speed Precip Events Conditions
12:15 AM 78.8 °F - 71.6 °F 78% 30.01 in - NNE 3.5 mph - N/A   Clear
1:15 AM 78.8 °F - 71.6 °F 78% 30.01 in - North 4.6 mph - N/A   Clear
1:45 AM 78.8 °F - 71.6 °F 78% 29.98 in - North 3.5 mph - N/A   Clear
2:00 AM 78 °F - 72 °F 76% 29.98 in 9 mi NNW 3.5 mph - -  
2:15 AM 77.0 °F - 71.6 °F 83% 29.98 in - North 4.6 mph - N/A   Clear
2:45 AM 77.0 °F - 73.4 °F 89% 29.98 in - NNW 3.5 mph - N/A   Clear
3:15 AM 77.0 °F - 71.6 °F 83% 29.98 in - NW 1.2 mph - N/A   Clear
3:45 AM 77.0 °F - 71.6 °F 83% 29.98 in - NW 3.5 mph - N/A   Clear
4:15 AM 75.2 °F - 71.6 °F 89% 29.98 in - WNW 4.6 mph - N/A   Clear
4:45 AM 77.0 °F - 73.4 °F 89% 29.98 in - NW 4.6 mph - N/A   Clear
5:00 AM 76 °F - 73 °F 88% 29.99 in 6 mi WNW 4.6 mph - -  
5:15 AM 77.0 °F - 73.4 °F 89% 29.98 in - NW 3.5 mph - N/A   Clear
5:45 AM 75.2 °F - 73.4 °F 94% 29.98 in - NNW 4.6 mph - N/A   Clear
6:15 AM 75.2 °F - 71.6 °F 89% 29.98 in - NNW 4.6 mph - N/A   Clear
6:45 AM 75.2 °F - 71.6 °F 89% 30.01 in - NNW 4.6 mph - N/A   Clear
7:45 AM 77.0 °F - 73.4 °F 89% 30.01 in - NNW 4.6 mph - N/A   Clear
8:00 AM 79 °F - 74 °F 79% 30.00 in 7 mi NNW 3.5 mph - -  
8:15 AM 80.6 °F 85.4 °F 73.4 °F 79% 30.01 in - NW 3.5 mph - N/A   Clear
8:45 AM 82.4 °F 87.2 °F 71.6 °F 70% 30.01 in - North 3.5 mph - N/A   Clear
9:15 AM 84.2 °F 88.4 °F 69.8 °F 62% 30.01 in - ENE 3.5 mph - N/A   Clear
10:15 AM 87.8 °F 87.1 °F 59.0 °F 38% 30.04 in - NE 5.8 mph - N/A   Clear
10:45 AM 87.8 °F 87.6 °F 60.8 °F 40% 30.04 in 6.2 mi ENE 3.5 mph - N/A   Partly Cloudy
11:00 AM 89 °F - 61 °F 29% 30.02 in 9 mi NE 1.2 mph - -   Scattered Clouds
11:15 AM 87.8 °F 91.4 °F 68.0 °F 52% 30.04 in 6.2 mi SSW 8.1 mph - N/A   Partly Cloudy
11:45 AM 86.0 °F 90.4 °F 69.8 °F 58% 30.01 in 6.2 mi SSW 9.2 mph - N/A   Partly Cloudy
12:15 PM 86.0 °F 89.4 °F 68.0 °F 55% 30.01 in 6.2 mi SW 6.9 mph - N/A   Partly Cloudy
12:45 PM 87.8 °F 91.4 °F 68.0 °F 52% 30.01 in 6.2 mi West 5.8 mph - N/A   Partly Cloudy
1:15 PM 89.6 °F 93.4 °F 68.0 °F 49% 30.01 in 6.2 mi SW 8.1 mph - N/A   Partly Cloudy
2:00 PM 89 °F - 70 °F 44% 29.99 in 12 mi NW 5.8 mph - -  
2:15 PM 86.0 °F 90.4 °F 69.8 °F 58% 30.01 in 6.2 mi NNE 6.9 mph - N/A   Partly Cloudy
2:45 PM 87.8 °F 92.6 °F 69.8 °F 55% 29.98 in 6.2 mi NE 6.9 mph - N/A   Partly Cloudy
3:15 PM 87.8 °F 92.6 °F 69.8 °F 55% 29.98 in 6.2 mi ENE 9.2 mph - N/A   Partly Cloudy
3:45 PM 86.0 °F 91.8 °F 71.6 °F 62% 29.98 in 6.2 mi ENE 11.5 mph - N/A   Partly Cloudy
4:15 PM 87.8 °F 93.8 °F 71.6 °F 58% 29.98 in 6.2 mi NNE 10.4 mph - N/A   Partly Cloudy
4:45 PM 86.0 °F 90.4 °F 69.8 °F 58% 29.98 in 6.2 mi ENE 9.2 mph - N/A   Partly Cloudy
5:00 PM 87 °F - 70 °F 48% 29.96 in 12 mi NE 10.4 mph - -   Scattered Clouds
5:15 PM 86.0 °F 91.8 °F 71.6 °F 62% 29.98 in - ENE 10.4 mph - N/A   Clear
5:45 PM 86.0 °F 91.8 °F 71.6 °F 62% 29.98 in 6.2 mi North 8.1 mph - N/A   Partly Cloudy
6:15 PM 84.2 °F 88.4 °F 69.8 °F 62% 29.98 in 6.2 mi NE 11.5 mph - N/A   Partly Cloudy
6:45 PM 84.2 °F 87.3 °F 68.0 °F 58% 29.98 in - NNE 8.1 mph - N/A   Clear
8:00 PM 82 °F - 68 °F 54% 29.98 in 9 mi NNE 8.1 mph - -  
8:15 PM 82.4 °F 86.3 °F 69.8 °F 66% 29.98 in - North 6.9 mph - N/A   Clear
8:45 PM 80.6 °F 83.9 °F 69.8 °F 70% 30.01 in - North 6.9 mph - N/A   Clear
9:15 PM 80.6 °F 84.6 °F 71.6 °F 74% 30.01 in - North 6.9 mph - N/A   Clear
9:45 PM 80.6 °F 84.6 °F 71.6 °F 74% 30.01 in - North 8.1 mph - N/A   Clear
10:15 PM 80.6 °F 84.6 °F 71.6 °F 74% 30.01 in - North 6.9 mph - N/A   Clear
11:15 PM 80.6 °F 83.9 °F 69.8 °F 70% 30.01 in - North 6.9 mph - N/A   Clear
11:45 PM 80.6 °F 83.2 °F 68.0 °F 65% 30.01 in - North 5.8 mph - N/A   Clear